Time,TemperatureF,DewpointF,PressureIn,WindDirection,WindDirectionDegrees,WindSpeedMPH,WindSpeedGustMPH,Humidity,HourlyPrecipIn,Conditions,Clouds,dailyrainin,SoftwareType,DateUTC
2013-05-12 00:01:00,69.5,53.1,30.16,NNE,32,0.0,6.0,56,0.00,,SKC,0.00,VWS V14.01,2013-05-12 05:01:00,
2013-05-12 00:06:00,69.5,53.1,30.16,NNE,32,3.0,3.0,56,0.00,,SKC,0.00,VWS V14.01,2013-05-12 05:06:00,
2013-05-12 00:11:00,69.4,53.0,30.16,NNE,32,0.0,3.0,56,0.00,,SKC,0.00,VWS V14.01,2013-05-12 05:11:00,
2013-05-12 00:16:00,69.4,53.0,30.16,NNE,32,1.0,4.0,56,0.00,,SKC,0.00,VWS V14.01,2013-05-12 05:16:00,
2013-05-12 00:21:00,69.3,53.0,30.16,NNE,32,0.0,4.0,56,0.00,,SKC,0.00,VWS V14.01,2013-05-12 05:21:00,
2013-05-12 00:26:00,69.2,52.8,30.16,NNE,32,0.0,4.0,56,0.00,,SKC,0.00,VWS V14.01,2013-05-12 05:26:00,
2013-05-12 00:31:00,69.1,52.8,30.16,NNE,32,0.0,4.0,56,0.00,,SKC,0.00,VWS V14.01,2013-05-12 05:31:00,
2013-05-12 00:36:00,69.0,53.2,30.16,NNE,32,0.0,2.0,57,0.00,,SKC,0.00,VWS V14.01,2013-05-12 05:36:00,
2013-05-12 00:41:00,68.9,53.1,30.16,NNE,32,3.0,4.0,57,0.00,,SKC,0.00,VWS V14.01,2013-05-12 05:41:00,
2013-05-12 00:46:00,68.7,52.9,30.16,NNE,17,3.0,7.0,57,0.00,,SKC,0.00,VWS V14.01,2013-05-12 05:46:00,
2013-05-12 00:51:00,68.6,52.8,30.16,NNE,17,2.0,7.0,57,0.00,,SKC,0.00,VWS V14.01,2013-05-12 05:51:00,
2013-05-12 00:56:00,68.5,52.2,30.16,NNE,15,0.0,7.0,56,0.00,,SKC,0.00,VWS V14.01,2013-05-12 05:56:00,
2013-05-12 01:01:00,68.5,52.2,30.16,NNE,15,0.0,7.0,56,0.00,,SKC,0.00,VWS V14.01,2013-05-12 06:01:00,
2013-05-12 01:06:00,68.4,52.1,30.14,NNE,15,0.0,4.0,56,0.00,,SKC,0.00,VWS V14.01,2013-05-12 06:06:00,
2013-05-12 01:11:00,68.4,52.1,30.14,NNE,15,3.0,7.0,56,0.00,,SKC,0.00,VWS V14.01,2013-05-12 06:11:00,
2013-05-12 01:16:00,68.3,52.5,30.15,NNE,15,0.0,7.0,57,0.00,,SKC,0.00,VWS V14.01,2013-05-12 06:16:00,
2013-05-12 01:21:00,68.1,52.3,30.14,NNE,15,0.0,7.0,57,0.00,,SKC,0.00,VWS V14.01,2013-05-12 06:21:00,
2013-05-12 01:26:00,68.0,51.2,30.14,NNE,17,0.0,7.0,55,0.00,,SKC,0.00,VWS V14.01,2013-05-12 06:26:00,
2013-05-12 01:31:00,68.0,50.2,30.14,NNE,20,4.0,7.0,53,0.00,,SKC,0.00,VWS V14.01,2013-05-12 06:31:00,
2013-05-12 01:36:00,68.2,50.4,30.13,NNE,22,0.0,4.0,53,0.00,,SKC,0.00,VWS V14.01,2013-05-12 06:36:00,
2013-05-12 01:41:00,68.3,49.5,30.13,NNE,23,4.0,5.0,51,0.00,,SKC,0.00,VWS V14.01,2013-05-12 06:41:00,
2013-05-12 01:46:00,68.5,49.2,30.12,NNE,30,0.0,7.0,50,0.00,,SKC,0.00,VWS V14.01,2013-05-12 06:46:00,
2013-05-12 01:51:00,68.7,49.3,30.13,NE,40,4.0,7.0,50,0.00,,SKC,0.00,VWS V14.01,2013-05-12 06:51:00,
2013-05-12 01:56:00,69.0,49.6,30.13,NNE,26,1.0,7.0,50,0.00,,SKC,0.00,VWS V14.01,2013-05-12 06:56:00,
2013-05-12 02:01:00,69.0,49.1,30.13,NE,51,0.0,7.0,49,0.00,,SKC,0.00,VWS V14.01,2013-05-12 07:01:00,
2013-05-12 02:06:00,69.1,49.7,30.13,NNE,26,6.0,10.0,50,0.00,,SKC,0.00,VWS V14.01,2013-05-12 07:06:00,
2013-05-12 02:11:00,69.0,49.6,30.13,NNE,33,0.0,10.0,50,0.00,,SKC,0.00,VWS V14.01,2013-05-12 07:11:00,
2013-05-12 02:16:00,68.8,50.0,30.14,NE,39,0.0,10.0,51,0.00,,SKC,0.00,VWS V14.01,2013-05-12 07:16:00,
2013-05-12 02:21:00,68.6,49.8,30.14,NE,38,0.0,10.0,51,0.00,,SKC,0.00,VWS V14.01,2013-05-12 07:21:00,
2013-05-12 02:26:00,68.3,50.0,30.13,NE,37,0.0,10.0,52,0.00,,SKC,0.00,VWS V14.01,2013-05-12 07:26:00,
2013-05-12 02:31:00,67.9,50.2,30.13,NE,37,0.0,10.0,53,0.00,,SKC,0.00,VWS V14.01,2013-05-12 07:31:00,
2013-05-12 02:36:00,67.6,49.9,30.13,NE,37,0.0,5.0,53,0.00,,SKC,0.00,VWS V14.01,2013-05-12 07:36:00,
2013-05-12 02:41:00,67.3,50.1,30.13,NE,37,0.0,5.0,54,0.00,,SKC,0.00,VWS V14.01,2013-05-12 07:41:00,
2013-05-12 02:46:00,67.0,49.8,30.14,NE,37,0.0,5.0,54,0.00,,SKC,0.00,VWS V14.01,2013-05-12 07:46:00,
2013-05-12 02:51:00,66.7,50.0,30.14,NE,37,0.0,5.0,55,0.00,,SKC,0.00,VWS V14.01,2013-05-12 07:51:00,
2013-05-12 02:56:00,66.5,49.8,30.13,NE,37,0.0,5.0,55,0.00,,SKC,0.00,VWS V14.01,2013-05-12 07:56:00,
2013-05-12 03:01:00,66.1,50.0,30.13,NE,37,2.0,5.0,56,0.00,,SKC,0.00,VWS V14.01,2013-05-12 08:01:00,
2013-05-12 03:06:00,65.7,49.6,30.13,NE,37,3.0,3.0,56,0.00,,SKC,0.00,VWS V14.01,2013-05-12 08:06:00,
2013-05-12 03:11:00,65.5,49.9,30.12,NE,39,2.0,4.0,57,0.00,,SKC,0.00,VWS V14.01,2013-05-12 08:11:00,
2013-05-12 03:16:00,65.3,49.7,30.12,NE,38,0.0,5.0,57,0.00,,SKC,0.00,VWS V14.01,2013-05-12 08:16:00,
2013-05-12 03:21:00,65.2,49.6,30.13,NE,37,0.0,5.0,57,0.00,,SKC,0.00,VWS V14.01,2013-05-12 08:21:00,
2013-05-12 03:26:00,65.1,49.5,30.13,NE,37,0.0,5.0,57,0.00,,SKC,0.00,VWS V14.01,2013-05-12 08:26:00,
2013-05-12 03:31:00,65.0,49.4,30.14,NE,37,1.0,5.0,57,0.00,,SKC,0.00,VWS V14.01,2013-05-12 08:31:00,
2013-05-12 03:36:00,64.9,49.3,30.14,NE,37,2.0,2.0,57,0.00,,SKC,0.00,VWS V14.01,2013-05-12 08:36:00,
2013-05-12 03:41:00,64.8,49.7,30.14,NE,37,0.0,2.0,58,0.00,,SKC,0.00,VWS V14.01,2013-05-12 08:41:00,
2013-05-12 03:46:00,64.5,49.4,30.14,NE,37,0.0,2.0,58,0.00,,SKC,0.00,VWS V14.01,2013-05-12 08:46:00,
2013-05-12 03:51:00,64.1,49.5,30.14,NE,37,0.0,2.0,59,0.00,,SKC,0.00,VWS V14.01,2013-05-12 08:51:00,
2013-05-12 03:56:00,63.8,49.7,30.14,NE,37,0.0,3.0,60,0.00,,SKC,0.00,VWS V14.01,2013-05-12 08:56:00,
2013-05-12 04:01:00,63.4,49.7,30.14,NE,37,0.0,3.0,61,0.00,,SKC,0.00,VWS V14.01,2013-05-12 09:01:00,
2013-05-12 04:06:00,63.0,49.8,30.14,NE,37,0.0,0.0,62,0.00,,SKC,0.00,VWS V14.01,2013-05-12 09:06:00,
2013-05-12 04:11:00,62.6,49.8,30.14,NE,37,0.0,3.0,63,0.00,,SKC,0.00,VWS V14.01,2013-05-12 09:11:00,
2013-05-12 04:16:00,62.2,49.9,30.14,NE,37,0.0,3.0,64,0.00,,SKC,0.00,VWS V14.01,2013-05-12 09:16:00,
2013-05-12 04:21:00,61.8,49.5,30.14,NE,37,0.0,3.0,64,0.00,,SKC,0.00,VWS V14.01,2013-05-12 09:21:00,
2013-05-12 04:26:00,61.6,49.3,30.15,NE,37,0.0,3.0,64,0.00,,SKC,0.00,VWS V14.01,2013-05-12 09:26:00,
2013-05-12 04:31:00,61.5,49.6,30.14,NE,37,0.0,3.0,65,0.00,,SKC,0.00,VWS V14.01,2013-05-12 09:31:00,
2013-05-12 04:36:00,61.3,49.5,30.14,NE,37,0.0,1.0,65,0.00,,SKC,0.00,VWS V14.01,2013-05-12 09:36:00,
2013-05-12 04:41:00,61.2,49.3,30.14,NE,37,0.0,1.0,65,0.00,,SKC,0.00,VWS V14.01,2013-05-12 09:41:00,
2013-05-12 04:46:00,61.1,49.3,30.14,NE,37,0.0,1.0,65,0.00,,SKC,0.00,VWS V14.01,2013-05-12 09:46:00,
2013-05-12 04:51:00,61.0,49.6,30.14,NNE,24,3.0,7.0,66,0.00,,SKC,0.00,VWS V14.01,2013-05-12 09:51:00,
2013-05-12 04:56:00,61.1,49.7,30.14,NNE,24,0.0,7.0,66,0.00,,SKC,0.00,VWS V14.01,2013-05-12 09:56:00,
2013-05-12 05:01:00,61.2,49.8,30.14,NNE,24,0.0,7.0,66,0.00,,SKC,0.00,VWS V14.01,2013-05-12 10:01:00,
2013-05-12 05:06:00,61.2,50.2,30.14,NNE,24,2.0,3.0,67,0.00,,SKC,0.00,VWS V14.01,2013-05-12 10:06:00,
2013-05-12 05:11:00,61.1,50.1,30.14,NNE,23,0.0,3.0,67,0.00,,SKC,0.00,VWS V14.01,2013-05-12 10:11:00,
2013-05-12 05:16:00,61.0,50.4,30.14,NNE,23,1.0,4.0,68,0.00,,SKC,0.00,VWS V14.01,2013-05-12 10:16:00,
2013-05-12 05:21:00,60.9,50.3,30.14,NNE,23,1.0,4.0,68,0.00,,SKC,0.00,VWS V14.01,2013-05-12 10:21:00,
2013-05-12 05:26:00,60.8,50.2,30.14,NNE,23,0.0,4.0,68,0.00,,SKC,0.00,VWS V14.01,2013-05-12 10:26:00,
2013-05-12 05:31:00,60.8,50.6,30.14,NNE,23,0.0,4.0,69,0.00,,SKC,0.00,VWS V14.01,2013-05-12 10:31:00,
2013-05-12 05:36:00,60.6,50.4,30.14,NNE,24,0.0,3.0,69,0.00,,SKC,0.00,VWS V14.01,2013-05-12 10:36:00,
2013-05-12 05:41:00,60.5,50.3,30.14,NNE,23,1.0,4.0,69,0.00,,SKC,0.00,VWS V14.01,2013-05-12 10:41:00,
2013-05-12 05:46:00,60.5,50.3,30.15,NNE,23,2.0,4.0,69,0.00,,SKC,0.00,VWS V14.01,2013-05-12 10:46:00,
2013-05-12 05:51:00,60.5,50.3,30.14,NNE,23,0.0,5.0,69,0.00,,SKC,0.00,VWS V14.01,2013-05-12 10:51:00,
2013-05-12 05:56:00,60.5,50.3,30.15,NNE,23,0.0,5.0,69,0.00,,SKC,0.00,VWS V14.01,2013-05-12 10:56:00,
2013-05-12 06:01:00,60.5,50.3,30.15,NNE,22,0.0,5.0,69,0.00,,SKC,0.00,VWS V14.01,2013-05-12 11:01:00,
2013-05-12 06:06:00,60.5,50.3,30.15,NNE,22,2.0,3.0,69,0.00,,SKC,0.00,VWS V14.01,2013-05-12 11:06:00,
2013-05-12 06:11:00,60.6,50.4,30.15,NNE,22,1.0,3.0,69,0.00,,SKC,0.00,VWS V14.01,2013-05-12 11:11:00,
2013-05-12 06:16:00,60.6,50.4,30.15,NNE,22,0.0,3.0,69,0.00,,SKC,0.00,VWS V14.01,2013-05-12 11:16:00,
2013-05-12 06:21:00,60.6,50.4,30.15,NNE,22,0.0,3.0,69,0.00,,SKC,0.00,VWS V14.01,2013-05-12 11:21:00,
2013-05-12 06:26:00,60.6,50.0,30.16,NNE,22,0.0,3.0,68,0.00,,SKC,0.00,VWS V14.01,2013-05-12 11:26:00,
2013-05-12 06:31:00,60.6,50.0,30.16,NNE,22,0.0,3.0,68,0.00,,SKC,0.00,VWS V14.01,2013-05-12 11:31:00,
2013-05-12 06:36:00,60.6,50.0,30.16,NNE,22,0.0,0.0,68,0.00,,SKC,0.00,VWS V14.01,2013-05-12 11:36:00,
2013-05-12 06:41:00,60.5,49.9,30.16,NNE,22,0.0,0.0,68,0.00,,SKC,0.00,VWS V14.01,2013-05-12 11:41:00,
2013-05-12 06:46:00,60.4,50.2,30.16,NNE,22,0.0,0.0,69,0.00,,SKC,0.00,VWS V14.01,2013-05-12 11:46:00,
2013-05-12 06:51:00,60.2,50.0,30.16,NNE,22,0.0,0.0,69,0.00,,SKC,0.00,VWS V14.01,2013-05-12 11:51:00,
2013-05-12 06:56:00,60.0,49.8,30.17,NNE,22,0.0,0.0,69,0.00,,SKC,0.00,VWS V14.01,2013-05-12 11:56:00,
2013-05-12 07:01:00,59.8,50.0,30.18,NNE,22,0.0,3.0,70,0.00,,SKC,0.00,VWS V14.01,2013-05-12 12:01:00,
2013-05-12 07:06:00,59.6,49.8,30.18,NNE,22,0.0,3.0,70,0.00,,SKC,0.00,VWS V14.01,2013-05-12 12:06:00,
2013-05-12 07:11:00,59.5,49.7,30.18,NNE,22,2.0,3.0,70,0.00,,SKC,0.00,VWS V14.01,2013-05-12 12:11:00,
2013-05-12 07:16:00,59.4,50.0,30.18,NNE,22,1.0,4.0,71,0.00,,SKC,0.00,VWS V14.01,2013-05-12 12:16:00,
2013-05-12 07:21:00,59.4,50.0,30.18,NNE,22,0.0,4.0,71,0.00,,SKC,0.00,VWS V14.01,2013-05-12 12:21:00,
2013-05-12 07:26:00,59.5,50.5,30.18,NNE,22,0.0,4.0,72,0.00,,SKC,0.00,VWS V14.01,2013-05-12 12:26:00,
2013-05-12 07:31:00,59.7,50.7,30.19,NNE,22,1.0,4.0,72,0.00,,SKC,0.00,VWS V14.01,2013-05-12 12:31:00,
2013-05-12 07:36:00,60.0,51.0,30.19,NNE,22,2.0,3.0,72,0.00,,SKC,0.00,VWS V14.01,2013-05-12 12:36:00,
2013-05-12 07:41:00,60.4,51.3,30.20,NNE,22,0.0,3.0,72,0.00,,SKC,0.00,VWS V14.01,2013-05-12 12:41:00,
2013-05-12 07:46:00,60.8,51.3,30.21,NNE,22,0.0,3.0,71,0.00,,SKC,0.00,VWS V14.01,2013-05-12 12:46:00,
2013-05-12 07:51:00,61.4,51.9,30.21,NNE,21,4.0,5.0,71,0.00,,SKC,0.00,VWS V14.01,2013-05-12 12:51:00,
2013-05-12 07:56:00,61.8,51.9,30.21,NNE,17,4.0,6.0,70,0.00,,SKC,0.00,VWS V14.01,2013-05-12 12:56:00,
2013-05-12 08:01:00,62.0,52.1,30.21,NNE,15,0.0,6.0,70,0.00,,SKC,0.00,VWS V14.01,2013-05-12 13:01:00,
2013-05-12 08:06:00,62.1,52.2,30.22,NNE,15,0.0,2.0,70,0.00,,SKC,0.00,VWS V14.01,2013-05-12 13:06:00,
2013-05-12 08:11:00,62.1,52.2,30.23,NNE,15,0.0,2.0,70,0.00,,SKC,0.00,VWS V14.01,2013-05-12 13:11:00,
2013-05-12 08:16:00,62.2,52.3,30.23,NNE,15,0.0,2.0,70,0.00,,SKC,0.00,VWS V14.01,2013-05-12 13:16:00,
2013-05-12 08:21:00,62.3,52.8,30.23,NNE,15,0.0,2.0,71,0.00,,SKC,0.00,VWS V14.01,2013-05-12 13:21:00,
2013-05-12 08:26:00,62.3,52.8,30.23,NNE,15,0.0,2.0,71,0.00,,SKC,0.00,VWS V14.01,2013-05-12 13:26:00,
2013-05-12 08:31:00,62.4,52.9,30.23,NNE,15,0.0,2.0,71,0.00,,SKC,0.00,VWS V14.01,2013-05-12 13:31:00,
2013-05-12 08:36:00,62.5,53.0,30.23,NNE,15,0.0,1.0,71,0.00,,SKC,0.00,VWS V14.01,2013-05-12 13:36:00,
2013-05-12 08:41:00,62.6,53.5,30.24,NNE,15,0.0,3.0,72,0.00,,SKC,0.00,VWS V14.01,2013-05-12 13:41:00,
2013-05-12 08:46:00,62.7,53.2,30.24,NNE,15,1.0,3.0,71,0.00,,SKC,0.00,VWS V14.01,2013-05-12 13:46:00,
2013-05-12 08:51:00,62.9,53.4,30.24,NNE,15,0.0,3.0,71,0.00,,SKC,0.00,VWS V14.01,2013-05-12 13:51:00,
2013-05-12 08:55:00,63.1,53.6,30.25,NNE,15,0.0,3.0,71,0.00,,SKC,0.00,VWS V14.01,2013-05-12 13:55:00,
2013-05-12 09:00:00,63.3,53.8,30.25,NNE,15,0.0,3.0,71,0.00,,SKC,0.00,VWS V14.01,2013-05-12 14:00:00,
2013-05-12 09:05:00,63.4,53.8,30.25,NNE,15,0.0,0.0,71,0.00,,SKC,0.00,VWS V14.01,2013-05-12 14:05:00,
2013-05-12 09:10:00,63.6,54.0,30.25,NNE,15,0.0,1.0,71,0.00,,SKC,0.00,VWS V14.01,2013-05-12 14:10:00,
2013-05-12 09:15:00,63.9,53.9,30.26,NNE,15,0.0,2.0,70,0.00,,SKC,0.00,VWS V14.01,2013-05-12 14:15:00,
2013-05-12 09:20:00,64.1,54.1,30.26,NNE,15,0.0,3.0,70,0.00,,SKC,0.00,VWS V14.01,2013-05-12 14:20:00,
2013-05-12 09:25:00,64.4,54.4,30.26,NNE,15,1.0,3.0,70,0.00,,SKC,0.00,VWS V14.01,2013-05-12 14:25:00,
2013-05-12 09:30:00,64.6,54.2,30.26,NNE,15,0.0,3.0,69,0.00,,SKC,0.00,VWS V14.01,2013-05-12 14:30:00,
2013-05-12 09:35:00,65.0,54.6,30.27,NNE,15,0.0,3.0,69,0.00,,SKC,0.00,VWS V14.01,2013-05-12 14:35:00,
2013-05-12 09:40:00,65.3,54.1,30.26,NNE,15,0.0,4.0,67,0.00,,SKC,0.00,VWS V14.01,2013-05-12 14:40:00,
2013-05-12 09:45:00,65.6,53.5,30.26,NNE,15,0.0,5.0,65,0.00,,SKC,0.00,VWS V14.01,2013-05-12 14:45:00,
2013-05-12 09:50:00,65.9,53.8,30.26,NNE,14,4.0,5.0,65,0.00,,SKC,0.00,VWS V14.01,2013-05-12 14:50:00,
2013-05-12 09:55:00,66.1,53.6,30.26,NNE,14,0.0,5.0,64,0.00,,SKC,0.00,VWS V14.01,2013-05-12 14:55:00,
2013-05-12 10:00:00,66.4,54.3,30.26,NNE,14,0.0,5.0,65,0.00,,SKC,0.00,VWS V14.01,2013-05-12 15:00:00,
2013-05-12 10:05:00,66.7,53.7,30.26,NNE,13,0.0,5.0,63,0.00,,SKC,0.00,VWS V14.01,2013-05-12 15:05:00,
2013-05-12 10:10:00,67.0,54.4,30.25,North,5,3.0,6.0,64,0.00,,SKC,0.00,VWS V14.01,2013-05-12 15:10:00,
2013-05-12 10:15:00,67.2,54.2,30.25,North,355,4.0,7.0,63,0.00,,SKC,0.00,VWS V14.01,2013-05-12 15:15:00,
2013-05-12 10:20:00,67.5,54.0,30.25,NNW,348,6.0,8.0,62,0.00,,SKC,0.00,VWS V14.01,2013-05-12 15:20:00,
2013-05-12 10:25:00,67.7,54.2,30.25,North,5,1.0,8.0,62,0.00,,SKC,0.00,VWS V14.01,2013-05-12 15:25:00,
2013-05-12 10:30:00,68.0,54.1,30.24,North,360,5.0,9.0,61,0.00,,SKC,0.00,VWS V14.01,2013-05-12 15:30:00,
2013-05-12 10:35:00,68.2,54.2,30.24,North,5,5.0,6.0,61,0.00,,SKC,0.00,VWS V14.01,2013-05-12 15:35:00,
2013-05-12 10:40:00,68.4,54.4,30.24,North,5,3.0,7.0,61,0.00,,SKC,0.00,VWS V14.01,2013-05-12 15:40:00,
2013-05-12 10:45:00,68.6,54.6,30.23,NNE,21,3.0,10.0,61,0.00,,SKC,0.00,VWS V14.01,2013-05-12 15:45:00,
2013-05-12 10:50:00,68.8,54.4,30.23,NNE,13,5.0,10.0,60,0.00,,SKC,0.00,VWS V14.01,2013-05-12 15:50:00,
2013-05-12 10:55:00,69.0,54.1,30.23,NNE,23,4.0,12.0,59,0.00,,SKC,0.00,VWS V14.01,2013-05-12 15:55:00,
2013-05-12 11:00:00,69.2,53.8,30.23,NNE,18,0.0,12.0,58,0.00,,SKC,0.00,VWS V14.01,2013-05-12 16:00:00,
2013-05-12 11:05:00,69.4,54.0,30.22,NNE,24,4.0,10.0,58,0.00,,SKC,0.00,VWS V14.01,2013-05-12 16:05:00,
2013-05-12 11:10:00,69.6,54.2,30.22,NNE,29,4.0,11.0,58,0.00,,SKC,0.00,VWS V14.01,2013-05-12 16:10:00,
2013-05-12 11:15:00,69.9,54.5,30.21,NE,43,6.0,11.0,58,0.00,,SKC,0.00,VWS V14.01,2013-05-12 16:15:00,
2013-05-12 11:20:00,70.5,54.5,30.21,NE,36,6.0,11.0,57,0.00,,SKC,0.00,VWS V14.01,2013-05-12 16:20:00,
2013-05-12 11:25:00,70.9,54.4,30.21,ENE,57,6.0,11.0,56,0.00,,SKC,0.00,VWS V14.01,2013-05-12 16:25:00,
2013-05-12 11:30:00,71.0,53.5,30.21,NE,46,2.0,12.0,54,0.00,,SKC,0.00,VWS V14.01,2013-05-12 16:30:00,
2013-05-12 11:35:00,71.5,55.0,30.21,North,350,10.0,10.0,56,0.00,,SKC,0.00,VWS V14.01,2013-05-12 16:35:00,
2013-05-12 11:40:00,72.3,54.7,30.21,NNE,32,5.0,10.0,54,0.00,,SKC,0.00,VWS V14.01,2013-05-12 16:40:00,
2013-05-12 11:45:00,72.8,54.7,30.22,NNE,23,7.0,11.0,53,0.00,,SKC,0.00,VWS V14.01,2013-05-12 16:45:00,
2013-05-12 11:50:00,73.6,55.4,30.21,NE,43,4.0,11.0,53,0.00,,SKC,0.00,VWS V14.01,2013-05-12 16:50:00,
2013-05-12 11:55:00,74.3,53.9,30.22,East,80,6.0,11.0,49,0.00,,SKC,0.00,VWS V14.01,2013-05-12 16:55:00,
2013-05-12 12:00:00,74.7,53.7,30.22,NE,54,1.0,11.0,48,0.00,,SKC,0.00,VWS V14.01,2013-05-12 17:00:00,
2013-05-12 12:05:00,75.0,53.4,30.21,NE,40,6.0,13.0,47,0.00,,SKC,0.00,VWS V14.01,2013-05-12 17:05:00,
2013-05-12 12:10:00,75.5,52.7,30.22,East,97,8.0,13.0,45,0.00,,SKC,0.00,VWS V14.01,2013-05-12 17:10:00,
2013-05-12 12:15:00,75.8,54.2,30.22,NNE,31,0.0,13.0,47,0.00,,SKC,0.00,VWS V14.01,2013-05-12 17:15:00,
2013-05-12 12:20:00,76.2,53.3,30.21,NE,48,7.0,13.0,45,0.00,,SKC,0.00,VWS V14.01,2013-05-12 17:20:00,
2013-05-12 12:25:00,76.3,54.0,30.21,NE,50,2.0,13.0,46,0.00,,SKC,0.00,VWS V14.01,2013-05-12 17:25:00,
2013-05-12 12:30:00,76.7,52.5,30.21,ENE,74,5.0,13.0,43,0.00,,SKC,0.00,VWS V14.01,2013-05-12 17:30:00,
2013-05-12 12:35:00,76.9,53.3,30.21,NE,55,2.0,7.0,44,0.00,,SKC,0.00,VWS V14.01,2013-05-12 17:35:00,
2013-05-12 12:40:00,77.1,53.5,30.22,North,360,9.0,12.0,44,0.00,,SKC,0.00,VWS V14.01,2013-05-12 17:40:00,
2013-05-12 12:45:00,76.9,52.7,30.22,ESE,105,1.0,12.0,43,0.00,,SKC,0.00,VWS V14.01,2013-05-12 17:45:00,
2013-05-12 12:50:00,77.0,52.8,30.22,NE,48,0.0,12.0,43,0.00,,SKC,0.00,VWS V14.01,2013-05-12 17:50:00,
2013-05-12 12:55:00,77.3,53.1,30.21,ENE,57,1.0,12.0,43,0.00,,SKC,0.00,VWS V14.01,2013-05-12 17:55:00,
2013-05-12 13:00:00,77.5,52.6,30.21,East,94,0.0,12.0,42,0.00,,SKC,0.00,VWS V14.01,2013-05-12 18:00:00,
2013-05-12 13:05:00,77.7,52.8,30.21,ESE,122,0.0,10.0,42,0.00,,SKC,0.00,VWS V14.01,2013-05-12 18:05:00,
2013-05-12 13:10:00,77.9,53.6,30.21,East,94,3.0,10.0,43,0.00,,SKC,0.00,VWS V14.01,2013-05-12 18:10:00,
2013-05-12 13:15:00,78.1,53.2,30.21,East,98,6.0,12.0,42,0.00,,SKC,0.00,VWS V14.01,2013-05-12 18:15:00,
2013-05-12 13:20:00,77.8,52.9,30.21,East,89,0.0,14.0,42,0.00,,SKC,0.00,VWS V14.01,2013-05-12 18:20:00,
2013-05-12 13:25:00,77.8,53.5,30.21,ESE,102,0.0,14.0,43,0.00,,SKC,0.00,VWS V14.01,2013-05-12 18:25:00,
2013-05-12 13:30:00,78.0,52.4,30.21,ESE,107,9.0,14.0,41,0.00,,SKC,0.00,VWS V14.01,2013-05-12 18:30:00,
2013-05-12 13:35:00,78.0,52.4,30.21,East,81,1.0,9.0,41,0.00,,SKC,0.00,VWS V14.01,2013-05-12 18:35:00,
2013-05-12 13:40:00,77.6,52.1,30.20,SE,136,0.0,12.0,41,0.00,,SKC,0.00,VWS V14.01,2013-05-12 18:40:00,
2013-05-12 13:45:00,77.5,53.3,30.21,ENE,72,4.0,12.0,43,0.00,,SKC,0.00,VWS V14.01,2013-05-12 18:45:00,
2013-05-12 13:50:00,77.6,52.7,30.21,East,80,1.0,12.0,42,0.00,,SKC,0.00,VWS V14.01,2013-05-12 18:50:00,
2013-05-12 13:55:00,78.1,53.2,30.21,East,80,3.0,12.0,42,0.00,,SKC,0.00,VWS V14.01,2013-05-12 18:55:00,
2013-05-12 14:00:00,78.3,53.3,30.21,ENE,69,5.0,12.0,42,0.00,,SKC,0.00,VWS V14.01,2013-05-12 19:00:00,
2013-05-12 14:05:00,78.3,52.7,30.20,ENE,61,4.0,10.0,41,0.00,,SKC,0.00,VWS V14.01,2013-05-12 19:05:00,
2013-05-12 14:10:00,78.1,52.5,30.20,ENE,76,0.0,10.0,41,0.00,,SKC,0.00,VWS V14.01,2013-05-12 19:10:00,
2013-05-12 14:15:00,78.4,52.1,30.21,SE,134,3.0,10.0,40,0.00,,SKC,0.00,VWS V14.01,2013-05-12 19:15:00,
2013-05-12 14:20:00,78.7,52.4,30.21,ENE,77,2.0,10.0,40,0.00,,SKC,0.00,VWS V14.01,2013-05-12 19:20:00,
2013-05-12 14:25:00,78.9,53.2,30.21,East,86,2.0,10.0,41,0.00,,SKC,0.00,VWS V14.01,2013-05-12 19:25:00,
2013-05-12 14:30:00,78.9,51.9,30.20,ESE,108,4.0,12.0,39,0.00,,SKC,0.00,VWS V14.01,2013-05-12 19:30:00,
2013-05-12 14:35:00,79.0,52.0,30.20,ENE,71,0.0,5.0,39,0.00,,SKC,0.00,VWS V14.01,2013-05-12 19:35:00,
2013-05-12 14:40:00,79.1,53.4,30.20,SE,134,4.0,9.0,41,0.00,,SKC,0.00,VWS V14.01,2013-05-12 19:40:00,
2013-05-12 14:45:00,79.3,52.9,30.20,ENE,68,3.0,10.0,40,0.00,,SKC,0.00,VWS V14.01,2013-05-12 19:45:00,
2013-05-12 14:50:00,79.4,53.7,30.20,ENE,74,3.0,10.0,41,0.00,,SKC,0.00,VWS V14.01,2013-05-12 19:50:00,
2013-05-12 14:55:00,79.6,54.5,30.20,NE,44,0.0,10.0,42,0.00,,SKC,0.00,VWS V14.01,2013-05-12 19:55:00,
2013-05-12 15:00:00,80.2,53.0,30.20,ESE,115,0.0,10.0,39,0.00,,SKC,0.00,VWS V14.01,2013-05-12 20:00:00,
2013-05-12 15:05:00,80.8,53.6,30.19,East,81,2.0,6.0,39,0.00,,SKC,0.00,VWS V14.01,2013-05-12 20:05:00,
2013-05-12 15:10:00,80.7,52.8,30.19,ENE,58,4.0,12.0,38,0.00,,SKC,0.00,VWS V14.01,2013-05-12 20:10:00,
2013-05-12 15:15:00,80.2,53.0,30.20,East,92,1.0,12.0,39,0.00,,SKC,0.00,VWS V14.01,2013-05-12 20:15:00,
2013-05-12 15:20:00,79.8,53.4,30.19,SE,134,3.0,12.0,40,0.00,,SKC,0.00,VWS V14.01,2013-05-12 20:20:00,
2013-05-12 15:25:00,79.6,53.8,30.20,ESE,105,0.0,12.0,41,0.00,,SKC,0.00,VWS V14.01,2013-05-12 20:25:00,
2013-05-12 15:30:00,79.4,53.0,30.19,East,98,1.0,12.0,40,0.00,,SKC,0.00,VWS V14.01,2013-05-12 20:30:00,
2013-05-12 15:35:00,79.3,52.2,30.18,SE,133,5.0,7.0,39,0.00,,SKC,0.00,VWS V14.01,2013-05-12 20:35:00,
2013-05-12 15:40:00,79.0,53.3,30.18,East,88,0.0,7.0,41,0.00,,SKC,0.00,VWS V14.01,2013-05-12 20:40:00,
2013-05-12 15:45:00,79.1,52.0,30.17,East,84,4.0,12.0,39,0.00,,SKC,0.00,VWS V14.01,2013-05-12 20:45:00,
2013-05-12 15:50:00,79.1,52.7,30.17,ENE,69,5.0,12.0,40,0.00,,SKC,0.00,VWS V14.01,2013-05-12 20:50:00,
2013-05-12 15:55:00,79.1,51.3,30.17,NE,54,7.0,12.0,38,0.00,,SKC,0.00,VWS V14.01,2013-05-12 20:55:00,
2013-05-12 16:00:00,79.0,52.0,30.16,SE,131,3.0,12.0,39,0.00,,SKC,0.00,VWS V14.01,2013-05-12 21:00:00,
2013-05-12 16:05:00,78.9,52.5,30.16,East,79,2.0,10.0,40,0.00,,SKC,0.00,VWS V14.01,2013-05-12 21:05:00,
2013-05-12 16:10:00,78.9,51.2,30.16,East,95,4.0,10.0,38,0.00,,SKC,0.00,VWS V14.01,2013-05-12 21:10:00,
2013-05-12 16:15:00,78.6,52.3,30.16,East,92,3.0,10.0,40,0.00,,SKC,0.00,VWS V14.01,2013-05-12 21:15:00,
2013-05-12 16:20:00,78.6,51.6,30.16,ENE,74,1.0,10.0,39,0.00,,SKC,0.00,VWS V14.01,2013-05-12 21:20:00,
2013-05-12 16:25:00,78.8,51.1,30.16,ENE,70,2.0,10.0,38,0.00,,SKC,0.00,VWS V14.01,2013-05-12 21:25:00,
2013-05-12 16:30:00,79.2,51.4,30.16,ENE,77,2.0,10.0,38,0.00,,SKC,0.00,VWS V14.01,2013-05-12 21:30:00,
2013-05-12 16:35:00,79.4,49.4,30.16,NE,46,3.0,10.0,35,0.00,,SKC,0.00,VWS V14.01,2013-05-12 21:35:00,
2013-05-12 16:40:00,79.4,50.2,30.15,ENE,66,1.0,10.0,36,0.00,,SKC,0.00,VWS V14.01,2013-05-12 21:40:00,
2013-05-12 16:45:00,79.4,50.9,30.15,East,94,0.0,10.0,37,0.00,,SKC,0.00,VWS V14.01,2013-05-12 21:45:00,
2013-05-12 16:50:00,79.4,50.9,30.15,ENE,78,2.0,10.0,37,0.00,,SKC,0.00,VWS V14.01,2013-05-12 21:50:00,
2013-05-12 16:55:00,79.6,50.3,30.15,ESE,109,4.0,10.0,36,0.00,,SKC,0.00,VWS V14.01,2013-05-12 21:55:00,
2013-05-12 17:00:00,79.5,51.0,30.15,East,83,3.0,10.0,37,0.00,,SKC,0.00,VWS V14.01,2013-05-12 22:00:00,
2013-05-12 17:05:00,79.3,52.2,30.15,East,95,4.0,7.0,39,0.00,,SKC,0.00,VWS V14.01,2013-05-12 22:05:00,
2013-05-12 17:10:00,78.8,51.1,30.14,NNE,22,1.0,10.0,38,0.00,,SKC,0.00,VWS V14.01,2013-05-12 22:10:00,
2013-05-12 17:15:00,78.5,51.5,30.14,East,84,5.0,10.0,39,0.00,,SKC,0.00,VWS V14.01,2013-05-12 22:15:00,
2013-05-12 17:20:00,78.4,51.4,30.14,East,80,4.0,10.0,39,0.00,,SKC,0.00,VWS V14.01,2013-05-12 22:20:00,
2013-05-12 17:25:00,78.4,51.4,30.14,East,92,0.0,10.0,39,0.00,,SKC,0.00,VWS V14.01,2013-05-12 22:25:00,
2013-05-12 17:30:00,78.5,51.5,30.14,East,84,4.0,10.0,39,0.00,,SKC,0.00,VWS V14.01,2013-05-12 22:30:00,
2013-05-12 17:35:00,78.8,51.1,30.14,East,89,0.0,6.0,38,0.00,,SKC,0.00,VWS V14.01,2013-05-12 22:35:00,
2013-05-12 17:40:00,79.0,51.2,30.14,NE,51,6.0,9.0,38,0.00,,SKC,0.00,VWS V14.01,2013-05-12 22:40:00,
2013-05-12 17:45:00,79.2,50.7,30.14,ENE,57,5.0,10.0,37,0.00,,SKC,0.00,VWS V14.01,2013-05-12 22:45:00,
2013-05-12 17:50:00,79.1,50.6,30.14,NE,44,2.0,10.0,37,0.00,,SKC,0.00,VWS V14.01,2013-05-12 22:50:00,
2013-05-12 17:55:00,79.0,50.5,30.14,ESE,102,4.0,10.0,37,0.00,,SKC,0.00,VWS V14.01,2013-05-12 22:55:00,
2013-05-12 18:00:00,78.8,51.1,30.13,East,84,1.0,10.0,38,0.00,,SKC,0.00,VWS V14.01,2013-05-12 23:00:00,
2013-05-12 18:05:00,78.7,50.3,30.13,NE,48,0.0,11.0,37,0.00,,SKC,0.00,VWS V14.01,2013-05-12 23:05:00,
2013-05-12 18:10:00,78.5,49.3,30.13,East,90,2.0,11.0,36,0.00,,SKC,0.00,VWS V14.01,2013-05-12 23:10:00,
2013-05-12 18:15:00,78.2,49.8,30.13,East,88,0.0,11.0,37,0.00,,SKC,0.00,VWS V14.01,2013-05-12 23:15:00,
2013-05-12 18:20:00,77.9,50.3,30.13,East,84,0.0,11.0,38,0.00,,SKC,0.00,VWS V14.01,2013-05-12 23:20:00,
2013-05-12 18:25:00,77.8,50.9,30.13,East,81,2.0,11.0,39,0.00,,SKC,0.00,VWS V14.01,2013-05-12 23:25:00,
2013-05-12 18:30:00,77.8,50.9,30.13,East,92,0.0,11.0,39,0.00,,SKC,0.00,VWS V14.01,2013-05-12 23:30:00,
2013-05-12 18:35:00,77.8,51.6,30.13,East,92,2.0,9.0,40,0.00,,SKC,0.00,VWS V14.01,2013-05-12 23:35:00,
2013-05-12 18:40:00,77.7,52.2,30.13,ESE,110,0.0,9.0,41,0.00,,SKC,0.00,VWS V14.01,2013-05-12 23:40:00,
2013-05-12 18:45:00,77.6,52.1,30.12,East,94,0.0,9.0,41,0.00,,SKC,0.00,VWS V14.01,2013-05-12 23:45:00,
2013-05-12 18:50:00,77.3,52.5,30.12,East,89,3.0,9.0,42,0.00,,SKC,0.00,VWS V14.01,2013-05-12 23:50:00,
2013-05-12 18:55:00,77.1,52.3,30.13,East,84,0.0,9.0,42,0.00,,SKC,0.00,VWS V14.01,2013-05-12 23:55:00,
2013-05-12 19:00:00,76.8,52.0,30.13,East,84,1.0,9.0,42,0.00,,SKC,0.00,VWS V14.01,2013-05-13 00:00:00,
2013-05-12 19:05:00,76.6,52.5,30.13,East,86,0.0,6.0,43,0.00,,SKC,0.00,VWS V14.01,2013-05-13 00:05:00,
2013-05-12 19:10:00,76.4,52.9,30.13,East,82,4.0,6.0,44,0.00,,SKC,0.00,VWS V14.01,2013-05-13 00:10:00,
2013-05-12 19:15:00,76.3,52.8,30.13,ENE,76,0.0,6.0,44,0.00,,SKC,0.00,VWS V14.01,2013-05-13 00:15:00,
2013-05-12 19:20:00,76.2,52.7,30.13,ENE,76,0.0,6.0,44,0.00,,SKC,0.00,VWS V14.01,2013-05-13 00:20:00,
2013-05-12 19:25:00,76.1,53.2,30.13,ENE,78,0.0,6.0,45,0.00,,SKC,0.00,VWS V14.01,2013-05-13 00:25:00,
2013-05-12 19:30:00,76.0,53.2,30.14,ENE,78,0.0,6.0,45,0.00,,SKC,0.00,VWS V14.01,2013-05-13 00:30:00,
2013-05-12 19:35:00,76.0,53.2,30.14,ENE,78,0.0,1.0,45,0.00,,SKC,0.00,VWS V14.01,2013-05-13 00:35:00,
2013-05-12 19:40:00,75.9,53.1,30.14,ENE,78,0.0,1.0,45,0.00,,SKC,0.00,VWS V14.01,2013-05-13 00:40:00,
2013-05-12 19:45:00,75.7,52.9,30.14,ENE,78,0.0,3.0,45,0.00,,SKC,0.00,VWS V14.01,2013-05-13 00:45:00,
2013-05-12 19:50:00,75.6,52.8,30.14,ENE,78,0.0,4.0,45,0.00,,SKC,0.00,VWS V14.01,2013-05-13 00:50:00,
2013-05-12 19:55:00,75.5,53.3,30.15,ENE,78,0.0,4.0,46,0.00,,SKC,0.00,VWS V14.01,2013-05-13 00:55:00,
2013-05-12 20:00:00,75.4,53.2,30.15,ENE,78,0.0,4.0,46,0.00,,SKC,0.00,VWS V14.01,2013-05-13 01:00:00,
2013-05-12 20:05:00,75.3,53.1,30.15,ENE,78,0.0,0.0,46,0.00,,SKC,0.00,VWS V14.01,2013-05-13 01:05:00,
2013-05-12 20:10:00,75.1,53.5,30.16,ENE,78,0.0,1.0,47,0.00,,SKC,0.00,VWS V14.01,2013-05-13 01:10:00,
2013-05-12 20:15:00,74.9,52.8,30.16,ENE,78,0.0,1.0,46,0.00,,SKC,0.00,VWS V14.01,2013-05-13 01:15:00,
2013-05-12 20:20:00,74.6,53.1,30.16,ENE,78,0.0,1.0,47,0.00,,SKC,0.00,VWS V14.01,2013-05-13 01:20:00,
2013-05-12 20:25:00,74.3,52.8,30.16,ENE,78,0.0,1.0,47,0.00,,SKC,0.00,VWS V14.01,2013-05-13 01:25:00,
2013-05-12 20:30:00,74.0,52.5,30.17,ENE,78,0.0,1.0,47,0.00,,SKC,0.00,VWS V14.01,2013-05-13 01:30:00,
2013-05-12 20:35:00,73.6,52.7,30.16,ENE,78,0.0,0.0,48,0.00,,SKC,0.00,VWS V14.01,2013-05-13 01:35:00,
2013-05-12 20:40:00,73.3,52.5,30.17,ENE,78,0.0,0.0,48,0.00,,SKC,0.00,VWS V14.01,2013-05-13 01:40:00,
2013-05-12 20:45:00,73.0,52.7,30.17,ENE,78,0.0,0.0,49,0.00,,SKC,0.00,VWS V14.01,2013-05-13 01:45:00,
2013-05-12 20:50:00,72.5,52.8,30.17,ENE,78,0.0,1.0,50,0.00,,SKC,0.00,VWS V14.01,2013-05-13 01:50:00,
2013-05-12 20:54:00,72.1,53.0,30.18,ENE,78,0.0,1.0,51,0.00,,SKC,0.00,VWS V14.01,2013-05-13 01:54:00,
2013-05-12 21:00:00,71.7,53.2,30.18,ENE,78,0.0,1.0,52,0.00,,SKC,0.00,VWS V14.01,2013-05-13 02:00:00,
2013-05-12 21:05:00,71.4,52.9,30.18,ENE,78,0.0,0.0,52,0.00,,SKC,0.00,VWS V14.01,2013-05-13 02:05:00,
2013-05-12 21:10:00,71.1,53.1,30.18,ENE,78,0.0,0.0,53,0.00,,SKC,0.00,VWS V14.01,2013-05-13 02:10:00,
2013-05-12 21:15:00,70.9,52.9,30.18,ENE,78,0.0,0.0,53,0.00,,SKC,0.00,VWS V14.01,2013-05-13 02:15:00,
2013-05-12 21:20:00,70.7,53.3,30.18,ENE,78,0.0,0.0,54,0.00,,SKC,0.00,VWS V14.01,2013-05-13 02:20:00,
2013-05-12 21:25:00,70.3,52.9,30.18,ENE,78,0.0,0.0,54,0.00,,SKC,0.00,VWS V14.01,2013-05-13 02:25:00,
2013-05-12 21:30:00,69.9,53.0,30.18,ENE,78,0.0,0.0,55,0.00,,SKC,0.00,VWS V14.01,2013-05-13 02:30:00,
2013-05-12 21:35:00,69.6,53.2,30.18,ENE,78,0.0,0.0,56,0.00,,SKC,0.00,VWS V14.01,2013-05-13 02:35:00,
2013-05-12 21:39:00,69.3,53.4,30.18,ENE,78,0.0,0.0,57,0.00,,SKC,0.00,VWS V14.01,2013-05-13 02:39:00,
2013-05-12 21:44:00,69.1,53.7,30.18,ENE,78,0.0,0.0,58,0.00,,SKC,0.00,VWS V14.01,2013-05-13 02:44:00,
2013-05-12 21:49:00,68.9,53.5,30.18,ENE,78,0.0,0.0,58,0.00,,SKC,0.00,VWS V14.01,2013-05-13 02:49:00,
2013-05-12 21:54:00,68.6,53.2,30.19,ENE,78,0.0,0.0,58,0.00,,SKC,0.00,VWS V14.01,2013-05-13 02:54:00,
2013-05-12 21:59:00,68.3,53.0,30.19,ENE,78,0.0,0.0,58,0.00,,SKC,0.00,VWS V14.01,2013-05-13 02:59:00,
2013-05-12 22:04:00,68.1,52.8,30.19,ENE,78,0.0,0.0,58,0.00,,SKC,0.00,VWS V14.01,2013-05-13 03:04:00,
2013-05-12 22:09:00,67.8,52.5,30.19,ENE,78,0.0,0.0,58,0.00,,SKC,0.00,VWS V14.01,2013-05-13 03:09:00,
2013-05-12 22:14:00,67.5,52.7,30.19,ENE,78,0.0,0.0,59,0.00,,SKC,0.00,VWS V14.01,2013-05-13 03:14:00,
2013-05-12 22:19:00,67.2,52.4,30.19,ENE,78,0.0,0.0,59,0.00,,SKC,0.00,VWS V14.01,2013-05-13 03:19:00,
2013-05-12 22:24:00,66.8,52.0,30.20,ENE,78,0.0,0.0,59,0.00,,SKC,0.00,VWS V14.01,2013-05-13 03:24:00,
2013-05-12 22:29:00,66.6,51.8,30.20,ENE,78,0.0,0.0,59,0.00,,SKC,0.00,VWS V14.01,2013-05-13 03:29:00,
2013-05-12 22:34:00,66.3,51.6,30.20,ENE,78,0.0,0.0,59,0.00,,SKC,0.00,VWS V14.01,2013-05-13 03:34:00,
2013-05-12 22:39:00,66.1,51.8,30.20,ENE,78,0.0,0.0,60,0.00,,SKC,0.00,VWS V14.01,2013-05-13 03:39:00,
2013-05-12 22:44:00,65.9,51.6,30.20,ENE,78,0.0,0.0,60,0.00,,SKC,0.00,VWS V14.01,2013-05-13 03:44:00,
2013-05-12 22:49:00,65.6,51.4,30.20,ENE,78,0.0,0.0,60,0.00,,SKC,0.00,VWS V14.01,2013-05-13 03:49:00,
2013-05-12 22:54:00,65.4,51.2,30.20,ENE,78,0.0,0.0,60,0.00,,SKC,0.00,VWS V14.01,2013-05-13 03:54:00,
2013-05-12 22:59:00,65.2,51.0,30.20,ENE,78,0.0,0.0,60,0.00,,SKC,0.00,VWS V14.01,2013-05-13 03:59:00,
2013-05-12 23:01:00,65.2,51.0,30.20,ENE,78,0.0,0.0,60,0.00,,SKC,0.00,VWS V14.01,2013-05-13 04:01:00,
2013-05-12 23:06:00,65.0,50.8,30.20,ENE,78,0.0,0.0,60,0.00,,SKC,0.00,VWS V14.01,2013-05-13 04:06:00,
2013-05-12 23:11:00,64.9,51.2,30.20,ENE,78,0.0,0.0,61,0.00,,SKC,0.00,VWS V14.01,2013-05-13 04:11:00,
2013-05-12 23:16:00,64.8,51.0,30.20,ENE,78,0.0,0.0,61,0.00,,SKC,0.00,VWS V14.01,2013-05-13 04:16:00,
2013-05-12 23:21:00,64.7,51.0,30.20,ENE,78,0.0,0.0,61,0.00,,SKC,0.00,VWS V14.01,2013-05-13 04:21:00,
2013-05-12 23:26:00,64.5,51.2,30.20,ENE,78,0.0,0.0,62,0.00,,SKC,0.00,VWS V14.01,2013-05-13 04:26:00,
2013-05-12 23:31:00,64.4,51.1,30.20,ENE,78,0.0,0.0,62,0.00,,SKC,0.00,VWS V14.01,2013-05-13 04:31:00,
2013-05-12 23:36:00,64.3,51.0,30.20,ENE,78,0.0,0.0,62,0.00,,SKC,0.00,VWS V14.01,2013-05-13 04:36:00,
2013-05-12 23:41:00,64.1,50.8,30.21,ENE,78,0.0,0.0,62,0.00,,SKC,0.00,VWS V14.01,2013-05-13 04:41:00,
2013-05-12 23:46:00,64.0,51.2,30.21,ENE,78,0.0,0.0,63,0.00,,SKC,0.00,VWS V14.01,2013-05-13 04:46:00,
2013-05-12 23:51:00,63.9,51.1,30.20,ENE,78,0.0,0.0,63,0.00,,SKC,0.00,VWS V14.01,2013-05-13 04:51:00,
2013-05-12 23:56:00,63.8,51.0,30.20,ENE,78,0.0,0.0,63,0.00,,SKC,0.00,VWS V14.01,2013-05-13 04:56:00,